This demonstration page uses our WeatherBlox Daily Observations layout. Learn more.

Left ArrowRight Arrow

Hourly Observations for October 2, 2018

Temp ( °F °C ) Dew Point ( °F °C ) Humidity (%) Winds ( mph kmh ) Pressure ( in mb ) Visibility ( mi km ) Precip ( " mm )
12:21 am 00:21 Cloudy 52 11.1 48 8.9 86 86 ESE 6 9 30.15 1021 10 16.0934 0 0
12:54 am 00:54 Cloudy 52 11.1 49 9.4 89 89 ENE 6 9 30.13 1020 10 16.0934 0 0
1:54 am 01:54 Cloudy 52 11.1 49 9.4 89 89 NE 3 6 30.15 1021 8 12.87472 0 0
2:54 am 02:54 Cloudy with Mist and Fog 52 11.1 49 9.4 89 89 Calm 30.13 1020 6 9.65604 0 0
3:54 am 03:54 Cloudy with Mist and Fog 52 11.1 49 9.4 89 89 SE 3 6 30.12 1020 6 9.65604 0 0
4:54 am 04:54 Cloudy with Mist and Fog 52 11.1 49 9.4 89 89 ENE 3 6 30.11 1020 5 8.0467 0 0
5:54 am 05:54 Cloudy with Mist and Fog 52 11.1 49 9.4 89 89 E 3 6 30.11 1020 6 9.65604 0 0
6:54 am 06:54 Cloudy with Mist and Fog 52 11.1 49 9.4 89 89 E 5 7 30.11 1020 6 9.65604 0 0
7:11 am 07:11 Cloudy with Mist and Fog 52 11.1 49 9.4 89 89 E 6 9 30.15 1021 6 9.65604 0 0
7:54 am 07:54 Cloudy with Mist and Fog 52 11.1 49 9.4 89 89 E 6 9 30.1 1019 4 6.43736 0 0
8:44 am 08:44 Cloudy with Mist and Fog 52 11.1 50 10 93 93 E 6 9 30.09 1019 3 4.82802 0 0
8:54 am 08:54 Cloudy with Mist and Fog 53 11.7 50 10 89 89 E 6 9 30.09 1019 3 4.82802 0 0
9:12 am 09:12 Cloudy with Mist and Fog 53 11.7 50 10 89 89 E 5 7 30.09 1019 4 6.43736 0 0
9:54 am 09:54 Cloudy with Mist and Fog 54 12.2 50 10 87 87 ESE 5 7 30.1 1019 4 6.43736 0 0
10:54 am 10:54 Cloudy with Mist and Fog 55 12.8 51 10.6 87 87 ESE 7 11 30.09 1019 5 8.0467 0 0
11:54 am 11:54 Cloudy 56 13.3 53 11.7 90 90 SE 7 11 30.07 1018 7 11.26538 0 0
12:54 pm 12:54 Cloudy 58 14.4 55 12.8 90 90 SSE 8 13 30.04 1017 8 12.87472 0 0
1:54 pm 13:54 Cloudy 61 16.1 56 13.3 84 84 SSE 8 13 29.99 1016 9 14.48406 0 0
2:54 pm 14:54 Cloudy 62 16.7 58 14.4 86 86 SSE 10 17 29.97 1015 9 14.48406 0 0
3:50 pm 15:50 Cloudy 64 18 59 15 83 83 Calm 29.91 1013 8 12.87472 0 0
3:54 pm 15:54 Cloudy 65 18.3 59 15 81 81 E 5 7 29.94 1014 8 12.87472 0 0
4:21 pm 16:21 Partly Cloudy 66 18.9 60 15.6 81 81 ESE 6 9 29.91 1013 9 14.48406 0 0
4:54 pm 16:54 Sunny 66 18.9 60 15.6 81 81 E 5 7 29.9 1013 10 16.0934 0 0
5:54 pm 17:54 Mostly Sunny 66 18.9 61 16.1 84 84 NE 3 6 29.88 1012 10 16.0934 0 0
6:54 pm 18:54 Sunny 67 19.4 62 16.7 84 84 E 3 6 29.87 1011 10 16.0934 0 0
7:54 pm 19:54 Clear 66 18.9 62 16.7 87 87 E 3 6 29.85 1011 10 16.0934 0 0
8:54 pm 20:54 Clear 64 17.8 61 16.1 90 90 Calm 29.84 1011 9 14.48406 0 0
9:54 pm 21:54 Clear 62 16.7 60 15.6 93 93 Calm 29.83 1010 9 14.48406 0 0
10:54 pm 22:54 Clear 65 18.3 62 16.7 90 90 S 8 13 29.81 1010 10 16.0934 0 0
11:54 pm 23:54 Clear 74 23.3 65 18.3 74 74 S 17 28 29.79 1009 10 16.0934 0 0

Powered by AerisWeather